• In Schweiz
  • Länderverzeichnis
  • Für 7 Tage
  • Wassertemperatur
  • Satellitenkarten
  • Wetterkarte
  • Widgets
  • user-avatar
    Anmelden

    Stündliche Wetter Serednje

    Heute, 22 September, Samstag

    Zeit Temperatur Niederschläge Wind Luftdruck Luftfeuchtigkeit
    00:00 +17°C° 0 mm 2 m/S 736 mmHg 61%
    01:00 +17°C° 0 mm 2 m/S 736 mmHg 62%
    02:00 +16°C° 0 mm 2 m/S 736 mmHg 64%
    03:00 +16°C° 0 mm 2 m/S 736 mmHg 63%
    04:00 +16°C° 0 mm 2 m/S 735 mmHg 63%
    05:00 +16°C° 0 mm 2 m/S 735 mmHg 62%
    06:00 +17°C° 0 mm 2 m/S 736 mmHg 61%
    07:00 +18°C° 0 mm 2 m/S 736 mmHg 60%
    08:00 +18°C° 0 mm 2 m/S 736 mmHg 59%
    09:00 +19°C° 0 mm 4 m/S 737 mmHg 61%
    10:00 +19°C° 0 mm 6 m/S 737 mmHg 64%
    11:00 +18°C° 0 mm 7 m/S 738 mmHg 66%
    12:00 +18°C° 0 mm 7 m/S 738 mmHg 66%
    13:00 +17°C° 0 mm 6 m/S 738 mmHg 65%
    14:00 +17°C° 0 mm 5 m/S 738 mmHg 65%
    15:00 +15°C° 0.5 mm 5 m/S 738 mmHg 71%
    16:00 +14°C° 0.5 mm 5 m/S 738 mmHg 78%
    17:00 +12°C° 0.5 mm 4 m/S 738 mmHg 84%
    18:00 +11°C° 1.3 mm 4 m/S 739 mmHg 87%
    19:00 +11°C° 1.3 mm 3 m/S 739 mmHg 89%
    20:00 +10°C° 1.3 mm 2 m/S 739 mmHg 91%
    21:00 +10°C° 0 mm 2 m/S 739 mmHg 91%
    22:00 +9°C° 0 mm 2 m/S 739 mmHg 91%
    23:00 +9°C° 0 mm 2 m/S 739 mmHg 91%

    Morgen, 23 September, Sonntag

    Zeit Temperatur Niederschläge Wind Luftdruck Luftfeuchtigkeit
    00:00 +9°C° 0 mm 2 m/S 739 mmHg 89%
    01:00 +8°C° 0 mm 2 m/S 739 mmHg 87%
    02:00 +8°C° 0 mm 2 m/S 739 mmHg 85%
    03:00 +8°C° 0 mm 2 m/S 739 mmHg 84%
    04:00 +8°C° 0 mm 2 m/S 739 mmHg 83%
    05:00 +8°C° 0 mm 2 m/S 739 mmHg 83%
    06:00 +9°C° 0 mm 2 m/S 739 mmHg 80%
    07:00 +10°C° 0 mm 2 m/S 739 mmHg 78%
    08:00 +12°C° 0 mm 2 m/S 739 mmHg 76%
    09:00 +13°C° 0 mm 3 m/S 739 mmHg 68%
    10:00 +16°C° 0 mm 3 m/S 739 mmHg 61%
    11:00 +17°C° 0 mm 4 m/S 739 mmHg 54%
    12:00 +18°C° 0 mm 4 m/S 739 mmHg 53%
    13:00 +18°C° 0 mm 4 m/S 738 mmHg 52%
    14:00 +18°C° 0 mm 4 m/S 738 mmHg 52%
    15:00 +18°C° 0 mm 4 m/S 738 mmHg 55%
    16:00 +17°C° 0 mm 4 m/S 737 mmHg 59%
    17:00 +17°C° 0 mm 3 m/S 737 mmHg 63%
    18:00 +16°C° 0 mm 3 m/S 737 mmHg 66%
    19:00 +15°C° 0 mm 2 m/S 737 mmHg 69%
    20:00 +14°C° 0 mm 2 m/S 736 mmHg 72%
    21:00 +14°C° 0 mm 2 m/S 736 mmHg 71%
    22:00 +13°C° 0 mm 3 m/S 735 mmHg 69%
    23:00 +13°C° 0 mm 3 m/S 734 mmHg 68%

    übermorgen, 24 September, Montag

    Zeit Temperatur Niederschläge Wind Luftdruck Luftfeuchtigkeit
    00:00 +13°C° 0 mm 4 m/S 733 mmHg 67%
    01:00 +13°C° 0 mm 4 m/S 732 mmHg 65%
    02:00 +13°C° 0 mm 5 m/S 731 mmHg 64%
    03:00 +13°C° 0.3 mm 5 m/S 730 mmHg 68%
    04:00 +14°C° 0.3 mm 6 m/S 728 mmHg 71%
    05:00 +14°C° 0.3 mm 6 m/S 727 mmHg 75%
    06:00 +14°C° 0.2 mm 6 m/S 727 mmHg 75%
    07:00 +15°C° 0.2 mm 6 m/S 727 mmHg 75%
    08:00 +16°C° 0.2 mm 6 m/S 726 mmHg 75%
    09:00 +15°C° 0.1 mm 8 m/S 728 mmHg 73%
    10:00 +13°C° 0.1 mm 10 m/S 729 mmHg 71%
    11:00 +12°C° 0.1 mm 13 m/S 730 mmHg 69%
    12:00 +12°C° 0 mm 12 m/S 731 mmHg 67%
    13:00 +11°C° 0 mm 11 m/S 733 mmHg 66%
    14:00 +11°C° 0 mm 10 m/S 734 mmHg 65%
    15:00 +9°C° 0.1 mm 10 m/S 735 mmHg 66%
    16:00 +9°C° 0.1 mm 10 m/S 735 mmHg 68%
    17:00 +10°C° 0.1 mm 9 m/S 736 mmHg 69%
    18:00 +8°C° 0 mm 9 m/S 736 mmHg 68%
    19:00 +7°C° 0 mm 8 m/S 737 mmHg 67%
    20:00 +6°C° 0 mm 7 m/S 737 mmHg 66%
    21:00 +6°C° 0 mm 8 m/S 738 mmHg 66%
    22:00 +6°C° 0 mm 8 m/S 738 mmHg 65%
    23:00 +6°C° 0 mm 8 m/S 738 mmHg 65%

    25 September, Dienstag

    Zeit Temperatur Niederschläge Wind Luftdruck Luftfeuchtigkeit
    00:00 +6°C° 0 mm 9 m/S 739 mmHg 66%
    01:00 +6°C° 0 mm 9 m/S 739 mmHg 67%
    02:00 +6°C° 0 mm 9 m/S 740 mmHg 69%
    03:00 +5°C° 0 mm 9 m/S 740 mmHg 70%
    04:00 +4°C° 0 mm 8 m/S 741 mmHg 71%
    05:00 +4°C° 0 mm 8 m/S 741 mmHg 72%
    06:00 +4°C° 0 mm 8 m/S 742 mmHg 71%
    07:00 +4°C° 0 mm 8 m/S 742 mmHg 69%
    08:00 +5°C° 0 mm 8 m/S 743 mmHg 68%
    09:00 +6°C° 0.1 mm 8 m/S 743 mmHg 63%
    10:00 +7°C° 0.1 mm 9 m/S 744 mmHg 58%
    11:00 +8°C° 0.1 mm 9 m/S 744 mmHg 53%
    12:00 +8°C° 0.1 mm 9 m/S 744 mmHg 52%
    13:00 +10°C° 0.1 mm 9 m/S 744 mmHg 51%
    14:00 +10°C° 0.1 mm 9 m/S 744 mmHg 50%
    15:00 +9°C° 0.1 mm 8 m/S 745 mmHg 53%
    16:00 +9°C° 0.1 mm 7 m/S 745 mmHg 55%
    17:00 +8°C° 0.1 mm 7 m/S 745 mmHg 58%
    18:00 +7°C° 0 mm 6 m/S 746 mmHg 62%
    19:00 +6°C° 0 mm 5 m/S 746 mmHg 66%
    20:00 +5°C° 0 mm 4 m/S 747 mmHg 70%
    21:00 +5°C° 0 mm 4 m/S 747 mmHg 70%
    22:00 +4°C° 0 mm 4 m/S 747 mmHg 70%
    23:00 +4°C° 0 mm 4 m/S 747 mmHg 70%

    26 September, Mittwoch

    Zeit Temperatur Niederschläge Wind Luftdruck Luftfeuchtigkeit
    00:00 +4°C° 0 mm 4 m/S 747 mmHg 69%
    01:00 +3°C° 0 mm 5 m/S 747 mmHg 67%
    02:00 +3°C° 0 mm 5 m/S 747 mmHg 66%
    03:00 +3°C° 0 mm 5 m/S 746 mmHg 64%
    04:00 +5°C° 0 mm 5 m/S 746 mmHg 62%
    05:00 +4°C° 0 mm 6 m/S 746 mmHg 60%
    06:00 +5°C° 0 mm 7 m/S 745 mmHg 59%
    07:00 +5°C° 0 mm 7 m/S 745 mmHg 59%
    08:00 +6°C° 0 mm 8 m/S 745 mmHg 58%
    09:00 +6°C° 0.4 mm 9 m/S 744 mmHg 61%
    10:00 +7°C° 0.4 mm 9 m/S 744 mmHg 64%
    11:00 +7°C° 0.4 mm 9 m/S 744 mmHg 67%
    12:00 +7°C° 0.6 mm 9 m/S 744 mmHg 72%
    13:00 +7°C° 0.6 mm 8 m/S 744 mmHg 76%
    14:00 +7°C° 0.6 mm 8 m/S 744 mmHg 81%
    15:00 +8°C° 0.4 mm 7 m/S 744 mmHg 79%
    16:00 +8°C° 0.4 mm 6 m/S 744 mmHg 77%
    17:00 +8°C° 0.4 mm 5 m/S 744 mmHg 75%
    18:00 +7°C° 0.1 mm 5 m/S 744 mmHg 79%
    19:00 +6°C° 0.1 mm 4 m/S 745 mmHg 83%
    20:00 +5°C° 0.1 mm 3 m/S 745 mmHg 87%
    21:00 +5°C° 0 mm 3 m/S 745 mmHg 89%
    22:00 +4°C° 0 mm 3 m/S 746 mmHg 90%
    23:00 +4°C° 0 mm 3 m/S 746 mmHg 91%

    27 September, Donnerstag

    Zeit Temperatur Niederschläge Wind Luftdruck Luftfeuchtigkeit
    00:00 +5°C° 0 mm 2 m/S 746 mmHg 92%
    01:00 +5°C° 0 mm 2 m/S 746 mmHg 92%
    02:00 +4°C° 0 mm 2 m/S 746 mmHg 93%
    03:00 +4°C° 0 mm 2 m/S 746 mmHg 93%
    04:00 +4°C° 0 mm 2 m/S 746 mmHg 93%
    05:00 +4°C° 0 mm 2 m/S 746 mmHg 94%
    06:00 +5°C° 0 mm 2 m/S 746 mmHg 91%
    07:00 +6°C° 0 mm 2 m/S 746 mmHg 89%
    08:00 +7°C° 0 mm 2 m/S 746 mmHg 87%
    09:00 +9°C° 0 mm 2 m/S 746 mmHg 80%
    10:00 +12°C° 0 mm 2 m/S 746 mmHg 73%
    11:00 +14°C° 0 mm 2 m/S 746 mmHg 66%
    12:00 +15°C° 0 mm 2 m/S 745 mmHg 62%
    13:00 +16°C° 0 mm 2 m/S 744 mmHg 58%
    14:00 +17°C° 0 mm 2 m/S 744 mmHg 54%
    15:00 +17°C° 0 mm 2 m/S 743 mmHg 57%
    16:00 +16°C° 0 mm 2 m/S 743 mmHg 59%
    17:00 +16°C° 0 mm 2 m/S 742 mmHg 61%
    18:00 +15°C° 0 mm 2 m/S 742 mmHg 63%
    19:00 +13°C° 0 mm 2 m/S 742 mmHg 65%
    20:00 +12°C° 0 mm 2 m/S 742 mmHg 67%
    21:00 +10°C° 0 mm 2 m/S 741 mmHg 67%
    22:00 +9°C° 0 mm 2 m/S 741 mmHg 67%
    23:00 +9°C° 0 mm 2 m/S 741 mmHg 68%
    Mehr zeigen